GW3385 Weather Reports


time (UTC)temp
F
wind
direction
speed
knots
gust
knots
rain 1hr
in
rain 24hr
in
rain mn
in
humidity
%
barometer
mb
20260504050556 59 250 1.7 6.1 0.00 0.00 0.00 81 1013.6
20260504045555 58 275 3.5 8.7 0.00 0.00 0.00 81 1013.6
20260504045055 59 297 2.6 8.7 0.00 0.00 0.00 81 1013.6
20260504044603 58 279 2.6 7.8 0.00 0.00 0.00 81 1013.6
20260504044057 58 296 2.6 8.7 0.00 0.00 0.00 81 1013.5
20260504043557 59 273 4.3 8.7 0.00 0.00 0.00 80 1013.5
20260504043055 59 271 2.6 6.1 0.00 0.00 0.00 81 1013.6
20260504042557 59 258 2.6 6.1 0.00 0.00 0.00 81 1013.6
20260504042100 59 0 1.7 6.1 0.00 0.00 0.00 81 1013.6
20260504041556 59 278 1.7 6.1 0.00 0.00 0.00 81 1013.5
20260504041056 59 267 2.6 7.0 0.00 0.00 0.00 80 1013.6
20260504040556 59 216 3.5 7.0 0.00 0.00 0.00 81 1013.4
20260504040105 59 183 1.7 8.7 0.00 0.00 0.00 80 1013.4
20260504035556 59 225 3.5 8.7 0.00 0.00 0.00 80 1013.3
20260504035056 59 200 4.3 7.8 0.00 0.00 0.00 80 1013.2
20260504034600 59 253 2.6 8.7 0.00 0.00 0.00 81 1013.2
20260504034056 59 191 2.6 8.7 0.00 0.00 0.00 81 1013.1
20260504033558 59 175 3.5 8.7 0.00 0.00 0.00 80 1013.2
20260504033126 59 211 1.7 6.1 0.00 0.00 0.00 81 1013.0
20260504032557 59 258 3.5 7.0 0.00 0.00 0.00 80 1012.9
20260504032100 59 171 1.7 8.7 0.00 0.00 0.00 81 1012.9
20260504031558 59 179 1.7 8.7 0.00 0.00 0.00 81 1012.8
20260504031057 58 277 3.5 9.6 0.00 0.00 0.00 81 1012.7
20260504030555 58 246 2.6 9.6 0.00 0.00 0.00 81 1012.8
20260504030101 58 287 4.3 8.7 0.00 0.00 0.00 80 1012.8
20260504025556 59 274 3.5 8.7 0.00 0.00 0.00 80 1012.7
20260504025056 59 162 3.5 8.7 0.00 0.00 0.00 79 1012.7
20260504024600 59 162 3.5 9.6 0.00 0.00 0.00 79 1013.0
20260504024102 59 255 2.6 9.6 0.00 0.00 0.00 79 1012.7
20260504023556 59 181 2.6 10.4 0.00 0.00 0.00 79 1012.7
20260504023104 59 169 3.5 13.0 0.00 0.00 0.00 78 1012.7
20260504022558 59 198 5.2 13.0 0.00 0.00 0.00 78 1012.7
20260504022055 59 308 5.2 11.3 0.00 0.00 0.00 77 1012.5
20260504021559 59 242 2.6 12.2 0.00 0.00 0.00 77 1012.5
20260504021056 59 236 4.3 12.2 0.00 0.00 0.00 76 1012.4
20260504020556 59 171 4.3 10.4 0.00 0.00 0.00 76 1012.3
20260504020101 59 206 3.5 9.6 0.00 0.00 0.00 77 1012.4
20260504015556 59 148 3.5 10.4 0.00 0.00 0.00 77 1012.2
20260504015059 59 247 3.5 10.4 0.00 0.00 0.00 76 1012.3
20260504014555 59 261 4.3 11.3 0.00 0.00 0.00 76 1012.2
20260504014055 59 288 7.0 11.3 0.00 0.00 0.00 75 1012.1
20260504013556 59 240 7.0 11.3 0.00 0.00 0.00 74 1012.1
20260504013111 59 265 4.3 12.2 0.00 0.00 0.00 74 1012.1
20260504012557 59 170 6.1 12.2 0.00 0.00 0.00 74 1012.3
20260504012055 60 268 7.0 12.2 0.00 0.00 0.00 74 1012.4
20260504011559 60 239 4.3 11.3 0.00 0.00 0.00 73 1012.2
20260504011056 60 223 4.3 11.3 0.00 0.00 0.00 72 1012.0
20260504010555 61 224 4.3 11.3 0.00 0.00 0.00 71 1012.2
20260504010112 61 169 3.5 10.4 0.00 0.00 0.00 70 1012.0
20260504005559 60 236 2.6 10.4 0.00 0.00 0.00 70 1012.1
20260504005056 60 213 5.2 10.4 0.00 0.00 0.00 70 1012.1
20260504004624 61 225 5.2 10.4 0.00 0.00 0.00 69 1012.0
20260504004055 61 242 4.3 10.4 0.00 0.00 0.00 69 1011.9
20260504003559 61 237 1.7 11.3 0.00 0.00 0.00 69 1011.8
20260504003055 61 286 3.5 11.3 0.00 0.00 0.00 68 1011.9
20260504002556 61 253 4.3 9.6 0.00 0.00 0.00 67 1011.9
20260504002056 61 265 4.3 12.2 0.00 0.00 0.00 69 1012.0
20260504001607 61 243 4.3 12.2 0.00 0.00 0.00 70 1012.0
20260504001056 61 262 3.5 9.6 0.00 0.00 0.00 71 1011.9
20260504000556 61 258 4.3 10.4 0.00 0.00 0.00 70 1011.7
20260504000055 61 238 4.3 10.4 0.00 0.00 0.00 71 1011.8
20260503235554 61 261 5.2 10.4 0.00 0.00 0.00 72 1011.7
20260503235052 61 187 4.3 11.3 0.00 0.00 0.00 72 1011.6
20260503234558 61 252 5.2 11.3 0.00 0.00 0.00 74 1011.7
20260503234052 61 263 4.3 10.4 0.00 0.00 0.00 75 1011.7
20260503233552 61 227 5.2 13.9 0.00 0.00 0.00 74 1011.6
20260503233059 61 227 5.2 13.9 0.00 0.00 0.00 74 1011.6
20260503232551 61 294 7.0 12.2 0.00 0.00 0.00 72 1011.9
20260503232051 61 261 3.5 13.9 0.00 0.00 0.00 71 1012.1
20260503231557 61 321 6.1 13.9 0.00 0.00 0.00 68 1012.0
20260503231051 62 261 4.3 10.4 0.00 0.00 0.00 69 1012.0
20260503230552 62 246 6.1 10.4 0.00 0.00 0.00 68 1012.1
20260503225554 62 182 4.3 12.2 0.00 0.00 0.00 69 1012.1
20260503225051 62 263 6.1 12.2 0.00 0.00 0.00 68 1012.1
20260503224555 62 171 2.6 9.6 0.00 0.00 0.00 69 1012.3
20260503224052 62 301 5.2 9.6 0.00 0.00 0.00 69 1012.4
20260503223552 62 204 5.2 10.4 0.00 0.00 0.00 69 1012.3
20260503223100 62 293 5.2 10.4 0.00 0.00 0.00 70 1012.5
20260503222552 62 128 5.2 12.2 0.00 0.00 0.00 71 1012.4
20260503222051 62 225 3.5 12.2 0.00 0.00 0.00 71 1012.5
20260503221557 62 258 4.3 11.3 0.00 0.00 0.00 70 1012.6
20260503221054 62 205 6.1 11.3 0.00 0.00 0.00 70 1012.6
20260503220552 63 265 4.3 10.4 0.00 0.00 0.00 69 1012.6
20260503220054 63 208 5.2 10.4 0.00 0.00 0.00 69 1012.8
20260503215552 63 173 4.3 10.4 0.00 0.00 0.00 69 1012.7
20260503215051 62 251 4.3 12.2 0.00 0.00 0.00 70 1012.9
20260503214553 62 250 4.3 12.2 0.00 0.00 0.00 69 1012.8
20260503214058 62 276 5.2 11.3 0.00 0.00 0.00 70 1012.8
20260503213554 62 234 6.1 11.3 0.00 0.00 0.00 69 1012.9
20260503213111 62 217 4.3 10.4 0.00 0.00 0.00 69 1012.9
20260503212555 62 258 3.5 12.2 0.00 0.00 0.00 69 1012.8
20260503212051 62 277 5.2 12.2 0.00 0.00 0.00 68 1012.7
20260503211558 62 299 6.1 13.0 0.00 0.00 0.00 68 1012.9
20260503211051 62 259 5.2 13.0 0.00 0.00 0.00 69 1012.9
20260503210555 62 168 4.3 13.0 0.00 0.00 0.00 70 1013.0
20260503210100 62 310 3.5 13.0 0.00 0.00 0.00 70 1013.0
20260503205552 61 254 7.8 13.0 0.00 0.00 0.00 69 1013.0
20260503205056 61 269 6.1 12.2 0.00 0.00 0.00 70 1012.9
20260503204608 61 248 6.1 12.2 0.00 0.00 0.00 70 1012.9
20260503204056 61 234 7.0 11.3 0.00 0.00 0.00 71 1012.9
20260503203558 62 239 4.3 11.3 0.00 0.00 0.00 70 1012.9
20260503203105 62 240 7.0 10.4 0.00 0.00 0.00 68 1012.8
20260503202556 62 167 6.1 10.4 0.00 0.00 0.00 67 1012.9
20260503202056 62 278 1.7 8.7 0.00 0.00 0.00 69 1012.9
20260503201603 62 246 5.2 8.7 0.00 0.00 0.00 68 1013.0
20260503201056 62 297 3.5 8.7 0.00 0.00 0.00 67 1013.0
20260503200556 62 229 3.5 10.4 0.00 0.00 0.00 68 1013.1
20260503195555 62 301 4.3 10.4 0.00 0.00 0.00 68 1013.2
20260503195057 62 226 3.5 10.4 0.00 0.00 0.00 68 1013.2
20260503194601 62 257 4.3 10.4 0.00 0.00 0.00 69 1013.1
20260503194056 62 265 3.5 9.6 0.00 0.00 0.00 68 1013.2
20260503193556 62 229 4.3 9.6 0.00 0.00 0.00 69 1013.2
20260503193102 62 186 4.3 9.6 0.00 0.00 0.00 69 1013.2
20260503192555 62 206 3.5 9.6 0.00 0.00 0.00 69 1013.2
20260503192056 62 252 4.3 9.6 0.00 0.00 0.00 68 1013.2
20260503191635 62 238 5.2 9.6 0.00 0.00 0.00 68 1013.2
20260503191056 62 190 2.6 10.4 0.00 0.00 0.00 69 1013.3
20260503190556 63 233 1.7 10.4 0.00 0.00 0.00 67 1013.3
20260503190106 63 271 2.6 10.4 0.00 0.00 0.00 68 1013.3
20260503185559 63 169 1.7 7.0 0.00 0.00 0.00 68 1013.4
20260503185056 63 189 1.7 7.0 0.00 0.00 0.00 69 1013.3
20260503184601 63 115 2.6 6.1 0.00 0.00 0.00 69 1013.3
20260503184103 63 275 0.9 7.0 0.00 0.00 0.00 68 1013.4
20260503183557 62 182 2.6 7.0 0.00 0.00 0.00 69 1013.3
20260503183114 62 254 0.9 6.1 0.00 0.00 0.00 70 1013.4
20260503182555 62 0 0.9 6.1 0.00 0.00 0.00 71 1013.4
20260503182056 61 246 2.6 8.7 0.00 0.00 0.00 72 1013.4
20260503181605 61 205 2.6 8.7 0.00 0.00 0.00 72 1013.5
20260503181056 61 259 3.5 8.7 0.00 0.00 0.00 72 1013.5
20260503180559 61 196 2.6 7.8 0.00 0.00 0.00 74 1013.5
20260503180104 60 76 0.9 8.7 0.00 0.00 0.00 75 1013.6
20260503175556 60 242 3.5 9.6 0.00 0.00 0.00 75 1013.7
20260503175056 60 259 3.5 9.6 0.00 0.00 0.00 75 1013.8
20260503174556 59 227 4.3 9.6 0.00 0.00 0.00 75 1013.7
20260503174056 59 300 3.5 10.4 0.00 0.00 0.00 77 1013.7
20260503173556 59 301 2.6 10.4 0.00 0.00 0.00 78 1013.7
20260503173115 59 254 5.2 9.6 0.00 0.00 0.00 77 1013.7
20260503172559 59 291 5.2 8.7 0.00 0.00 0.00 78 1013.7
20260503172055 59 265 3.5 7.8 0.00 0.00 0.00 78 1013.6
20260503171555 59 277 2.6 7.8 0.00 0.00 0.00 78 1013.6
20260503171057 59 182 3.5 9.6 0.00 0.00 0.00 77 1013.5
20260503170556 59 196 5.2 9.6 0.00 0.00 0.00 78 1013.5
20260503150558 58 191 1.7 6.1 0.00 0.00 0.00 83 1012.7
20260503131054 58 0 0.0 2.6 0.00 0.00 0.00 84 1011.5
20260503130554 58 0 0.9 2.6 0.00 0.00 0.00 84 1011.5
20260503120119 59 179 0.0 5.2 0.00 0.00 0.00 79 1011.3
20260503110556 58 216 0.9 4.3 0.00 0.00 0.00 81 1011.7
20260503100104 59 0 0.0 2.6 0.00 0.00 0.00 84 1011.8
20260503081557 58 184 0.9 5.2 0.00 0.00 0.00 87 1012.3
20260503081056 58 217 2.6 6.1 0.00 0.00 0.00 88 1012.3
20260503080557 58 156 2.6 6.1 0.00 0.00 0.00 88 1012.3
20260503072557 58 201 2.6 7.8 0.00 0.00 0.00 90 1012.0
20260503072056 58 155 2.6 5.2 0.00 0.00 0.00 90 1011.9
20260503071600 58 254 1.7 5.2 0.00 0.00 0.00 90 1011.9
20260503071056 58 260 1.7 5.2 0.00 0.00 0.00 90 1011.8
20260503070556 58 201 0.9 4.3 0.00 0.00 0.00 91 1011.8
20260503070110 58 299 1.7 4.3 0.00 0.00 0.00 90 1011.8